SCP
0 0 0 0 0 0 0 0 0 0 0 0 0 0 0 0 0 0 0 0 0 0 0 0 0 0 0 0 0 0 0 0 0 0 0 0 0 0 0 0 0 0 0 0
0 0 0 0 0 0 0 0 0 0 0 0 0 0 0 0 0 0 0 0 0 0 0 0 0 0 0 0 0 0 0 0 0 0 0 0 0 0 0 0 0 0 0 0
0 0 0 0 0 0 0 0 0 0 0 0 0 0 0 0 0 0 0 0 0 0 0 0 0 0 0 0 0 0 0 0 0 0 0 0 0 0 0 0 0 0 0 0
0 0 0 0 0 0 0 0 0 0 0 0 0 0 0 0 0 0 0 0 0 0 0 0 0 0 0 0 0 0 0 0 0 0 0 0 0 0 0 0 0 0 0 0
0 0 0 0 0 0 0 0 0 0 0 0 0 0 0 0 0 0 0 0 0 0 0 0 0 0 0 0 0 0 0 0 0 0 0 0 0 0 0 0 0 0 0 0
0 0 0 0 0 0 0 0 0 0 0 0 0 0 0 0 0 0 0 0 0 0 0 0 0 0 0 0 0 0 0 0 0 0 0 0 0 0 0 0 0 0 0 0
0 0 0 0 0 0 0 0 0 0 0 0 0 0 0 0 0 0 0 0 0 0 0 0 0 0 0 0 0 0 0 0 0 0 0 0 0 0 0 0 0 0 0 0
0 0 0 0 0 0 0 0 0 0 0 0 0 0 0 0 0 0 0 0 0 0 0 0 0 0 0 0 0 0 0 0 0 0 0 0 0 0 0 0 0 0 0 0
0 0 0 0 0 0 0 0 0 0 0 0 0 0 0 0 0 0 0 0 0 0 0 0 0 0 0 0 0 0 0 0 0 0 0 0 0 0 0 0 0 0 0 0
0 0 0 0 0 0 0 0 0 0 0 0 0 0 0 0 0 0 0 0 0 0 0 0 0 0 0 0 0 0 0 0 0 0 0 0 0 0 0 0 0 0 0 0
0 0 0 0 0 0 0 0 0 0 0 0 0 0 0 0 0 0 0 0 0 0 0 0 0 0 0 0 0 0 0 0 0 0 0 0 0 0 0 0 0 0 0 0
0 0 0 0 0 0 0 0 0 0 0 0 0 0 0 0 0 0 0 0 0 0 0 0 0 0 0 0 0 0 0 0 0 0 0 0 0 0 0 0 0 0 0 0
0 0 0 0 0 0 0 0 0 0 0 0 0 0 0 0 0 0 0 0 0 0 0 0 0 0 0 0 0 0 0 0 0 0 0 0 0 0 0 0 0 0 0 0
0 0 0 0 0 0 0 0 0 0 0 0 0 0 0 0 0 0 0 0 0 0 0 0 0 0 0 0 0 0 0 0 0 0 0 0 0 0 0 0 0 0 0 0
0 0 0 0 0 0 0 0 0 0 0 0 0 0 0 0 0 0 0 0 0 0 0 0 0 0 0 0 0 0 0 0 0 0 0 0 0 0 0 0 0 0 0 0
0 0 0 0 0 0 0 0 0 0 0 0 0 0 0 0 0 0 0 0 0 0 0 0 0 0 0 0 0 0 0 0 0 0 0 0 0 0 0 0 0 0 0 0
0 0 0 0 0 0 0 0 0 0 0 0 0 0 0 0 0 0 0 0 0 0 0 0 0 0 0 0 0 0 0 0 0 0 0 0 0 0 0 0 0 0 0 0
0 0 0 0 0 0 0 0 0 0 0 0 0 0 0 0 0 0 0 0 0 0 0 0 0 0 0 0 0 0 0 0 0 0 0 0 0 0 0 0 0 0 0 0
0 0 0 0 0 0 0 0 0 0 0 0 0 0 0 0 0 0 0 0 0 0 0 0 0 0 0 0 0 0 0 0 0 0 0 0 0 0 0 0 0 0 0 0
0 0 0 0 0 0 0 0 0 0 0 0 0 0 0 0 0 0 0 0 0 0 0 0 0 0 0 0 0 0 0 0 0 0 0 0 0 0 0 0 0 0 0 0
0 0 0 0 0 0 0 0 0 0 0 0 0 0 0 0 0 0 0 0 0 0 0 0 0 0 0 0 0 0 0 0 0 0 0 0 0 0 0 0 0 0 0 0
0 0 0 0 0 0 0 0 0 0 0 0 0 0 0 0 0 0 0 0 0 0 0 0 0 0 0 0 0 0 0 0 0 0 0 0 0 0 0 0 0 0 0 0
0 0 0 0 0 0 0 0 0 0 0 0 0 0 0 0 0 0 0 0 0 0 0 0 0 0 0 0 0 0 0 0 0 0 0 0 0 0 0 0 0 0 0 0
0 0 0 0 0 0 0 0 0 0 0 0 0 0 0 0 0 0 0 0 0 0 0 0 0 0 0 0 0 0 0 0 0 0 0 0 0 0 0 0 0 0 0 0
0 0 0 0 0 0 0 0 0 0 0 0 0 0 0 0 0 0 0 0 0 0 0 0 0 0 0 0 0 0 0 0 0 0 0 0 0 0 0 0 0 0 0 0
0 0 0 0 0 0 0 0 0 0 0 0 0 0 0 0 0 0 0 0 0 0 0 0 0 0 0 0 0 0 0 0 0 0 0 0 0 0 0 0 0 0 0 0
0 0 0 0 0 0 0 0 0 0 0 0 0 0 0 0 0 0 0 0 0 0 0 0 0 0 0 0 0 0 0 0 0 0 0 0 0 0 0 0 0 0 0 0
Wind_Speed
3 2 3 4 5 6 6 7 7 7 7 11 8 8 7 6 6 5 6 5 5 5 4 4 3 3 2 2 2 2 3 4 4 5 5 5 6 6 6 7 7 6 7 7
2 2 2 3 4 6 6 5 6 6 9 9 5 3 4 6 6 7 7 6 6 5 5 4 4 3 2 2 2 1 2 3 4 5 5 5 6 6 6 7 7 7 7 7
2 3 2 5 5 6 6 7 7 7 8 4 3 5 6 7 7 8 8 7 6 5 5 5 4 4 3 2 1 1 2 3 4 4 4 5 5 6 6 6 6 6 7 7
1 2 2 6 2 5 5 6 8 8 7 5 6 5 5 6 7 8 7 6 6 5 4 4 3 3 2 1 1 1 2 3 3 4 4 4 5 5 5 4 5 5 6 7
3 0 6 6 1 4 2 5 5 7 8 4 1 2 5 6 8 9 8 6 6 5 4 3 3 3 2 2 1 1 3 3 3 3 3 4 4 5 4 4 4 4 4 6
4 1 3 5 2 2 2 5 4 4 4 3 4 1 6 5 6 7 6 5 5 4 3 3 3 3 3 3 2 4 4 4 3 2 2 3 3 3 3 2 3 4 4 5
4 2 8 8 2 2 2 6 4 3 3 7 8 8 5 2 3 6 6 6 5 5 4 4 4 5 4 4 5 5 3 3 3 2 2 2 2 2 2 2 3 4 4 4
4 2 6 3 4 4 6 4 2 2 3 7 9 6 4 3 4 5 5 5 5 5 5 4 5 6 5 6 6 4 3 3 3 3 2 1 1 2 2 2 3 3 4 4
8 7 4 2 3 3 3 4 3 3 3 4 6 6 6 5 5 6 6 6 5 6 5 4 5 6 7 7 5 4 3 4 3 3 2 1 1 1 1 1 2 2 3 3
3 4 2 2 3 5 4 4 5 4 4 2 5 6 5 5 5 6 6 6 5 5 6 6 6 7 8 6 4 5 5 5 4 3 3 2 1 1 1 1 1 2 2 2
3 3 3 4 7 9 7 5 5 5 3 2 3 4 4 5 6 6 6 5 5 6 7 8 6 7 8 6 6 6 6 5 4 4 4 3 3 3 3 4 4 3 2 2
4 2 1 3 7 10 8 8 7 6 7 5 2 4 4 5 5 5 5 5 5 7 8 8 7 7 7 7 7 7 6 6 5 4 4 3 3 3 6 7 8 9 8 5
3 2 2 3 5 8 6 7 7 6 6 6 6 5 3 4 4 4 5 5 7 9 9 8 7 8 8 7 8 8 8 7 5 4 4 4 4 4 4 4 6 8 9 9
1 1 3 4 5 7 7 7 6 7 8 7 7 6 6 5 4 4 6 7 7 7 7 7 7 9 9 7 8 9 9 9 7 5 5 5 5 5 4 4 4 4 5 9
5 5 4 3 4 7 7 8 10 12 12 11 9 9 9 8 7 7 7 6 5 5 7 6 7 11 8 7 9 10 8 7 6 6 5 5 5 5 5 5 5 4 3 4
5 6 5 6 7 8 9 11 11 10 10 11 11 11 9 8 7 7 8 7 5 6 7 6 9 11 7 6 8 8 8 13 10 6 6 5 5 5 5 5 5 5 5 5
6 4 4 5 6 6 7 7 7 7 8 10 11 10 10 10 10 11 11 10 7 6 6 6 9 10 7 6 7 7 7 8 13 8 7 7 7 7 7 6 6 6 7 6
7 6 5 5 4 5 5 6 7 7 8 8 8 9 11 12 12 12 12 11 9 8 9 10 11 11 9 7 6 6 6 7 7 8 8 8 8 7 7 7 8 8 6 6
7 7 6 6 5 4 4 5 5 6 6 7 8 9 9 9 10 10 10 10 12 13 14 15 19 13 10 9 8 5 6 7 7 8 8 10 9 7 8 8 8 8 7 6
7 6 6 5 5 4 4 4 4 5 6 7 7 8 9 10 10 10 10 8 8 9 13 16 14 11 12 12 11 6 7 8 9 8 8 8 8 9 9 9 9 9 8 7
6 6 5 5 4 4 4 3 4 5 5 6 6 7 7 8 8 8 8 8 10 12 13 17 12 11 12 14 14 7 7 7 8 8 8 9 9 9 9 9 9 9 9 8
5 4 4 3 3 2 2 3 3 4 4 5 5 6 6 7 8 7 6 5 8 16 11 9 9 17 21 19 9 8 8 7 7 7 8 8 9 9 10 10 10 10 9 9
4 4 3 2 2 1 2 2 3 3 3 4 4 5 5 5 4 5 6 7 7 15 11 8 17 24 25 13 10 10 10 9 8 7 8 8 8 9 9 10 10 9 9 9
4 3 3 2 2 1 1 2 3 2 3 3 3 4 3 4 4 3 4 10 14 15 8 12 20 23 20 10 10 11 11 10 9 9 8 8 7 7 8 8 8 8 9 10
4 3 3 2 2 2 3 3 3 3 3 3 5 5 3 2 3 5 6 7 12 13 7 12 20 20 12 9 9 10 10 11 11 10 9 8 8 7 7 7 8 8 8 9
4 3 3 4 4 3 2 2 2 3 3 3 4 4 4 4 4 5 5 6 8 11 8 7 8 11 8 8 9 10 10 11 11 10 11 10 10 9 7 7 9 8 8 8
3 2 2 2 3 3 3 3 3 3 3 3 4 5 5 4 5 5 6 6 6 6 6 6 6 6 7 7 8 8 8 8 9 10 10 10 10 10 9 10 8 7 7 7
Wind_Direction
219 218 176 209 201 176 185 193 205 241 249 266 261 240 236 231 233 244 258 261 262 263 270 276 281 285 296 307 322 342 356 356 346 342 348 354 356 355 357 1 3 357 360 360
8 356 209 252 240 202 214 213 231 262 273 259 263 238 233 229 224 236 248 250 255 261 263 262 258 258 268 280 298 329 344 340 339 348 355 356 353 353 359 1 359 3 5 1
326 330 25 289 247 195 215 214 199 224 246 264 254 236 231 225 220 229 238 242 243 248 250 251 246 234 233 241 270 318 324 331 338 345 351 351 353 358 358 355 358 3 2 3
74 33 269 249 248 188 215 248 218 234 251 240 237 250 249 221 214 228 233 233 235 236 243 246 236 218 206 193 224 287 308 320 329 340 343 348 357 358 352 350 357 359 1 360
102 76 293 301 250 173 192 288 229 228 255 256 238 355 299 231 208 217 220 218 221 221 221 225 223 203 176 189 229 270 287 298 309 324 334 344 352 347 345 351 358 1 358 3
116 139 244 256 286 172 112 303 279 215 245 179 123 49 275 264 211 215 213 208 210 208 204 215 217 176 176 208 232 253 262 275 293 306 316 326 332 332 336 344 347 357 5 3
144 212 264 253 252 111 93 261 276 224 214 170 190 210 234 281 217 206 202 203 197 191 204 219 195 171 194 215 233 242 251 270 289 296 294 300 326 335 337 349 359 3 2 357
144 175 262 267 151 175 223 255 274 253 212 201 228 249 255 260 234 211 201 199 189 194 220 222 187 180 206 228 235 233 237 256 273 285 293 319 338 340 351 359 3 358 354 351
182 204 247 305 234 284 279 271 277 272 259 226 239 248 241 241 233 220 210 205 195 198 221 227 201 192 212 233 221 213 227 246 258 272 276 278 280 309 334 350 347 340 347 343
234 265 283 326 329 326 303 272 286 288 285 233 237 253 245 239 230 223 218 211 201 199 219 234 218 210 222 228 204 202 225 242 246 251 261 258 246 239 247 269 290 307 316 320
237 299 340 6 6 342 331 337 344 341 341 306 261 269 251 243 235 226 222 216 201 206 222 235 227 222 226 217 196 207 225 236 240 238 242 249 245 232 228 229 212 223 241 247
201 205 226 301 337 342 351 1 0 6 9 4 335 290 280 257 248 236 232 221 217 222 230 239 232 232 230 208 195 203 222 231 228 228 232 232 244 267 242 234 243 237 229 222
230 267 238 286 339 347 353 0 9 22 15 3 355 338 316 289 275 258 250 238 231 231 232 236 235 239 236 207 196 204 217 224 219 217 220 223 222 232 266 271 249 246 242 238
331 124 90 28 355 350 0 5 23 31 21 13 1 358 352 337 324 302 272 257 249 246 245 240 237 244 241 208 201 212 218 225 219 216 215 216 218 220 221 237 265 272 252 241
44 69 91 68 33 24 22 29 38 28 16 11 8 6 0 353 339 321 309 302 281 261 256 250 246 253 245 208 208 215 216 221 219 216 213 213 214 215 218 223 233 247 263 266
97 75 73 66 50 36 34 36 36 23 13 8 7 2 353 344 336 336 340 338 321 292 279 269 260 263 255 220 218 221 222 225 215 213 213 211 210 212 218 221 228 234 240 240
128 106 82 69 55 44 38 33 29 17 11 11 3 356 357 1 2 358 352 346 332 316 320 316 299 295 280 240 225 229 227 227 220 215 215 214 212 215 218 218 222 229 237 228
117 119 118 108 89 65 43 32 27 22 15 5 3 9 13 12 4 353 347 347 354 357 353 338 325 319 304 276 247 240 233 227 217 216 217 217 217 216 214 217 223 229 238 236
110 107 100 92 86 77 54 33 21 15 11 10 14 14 11 7 359 352 350 359 5 357 346 339 335 331 320 307 287 256 243 238 230 225 221 222 221 218 216 219 224 227 229 225
109 107 101 90 78 71 56 33 22 20 13 11 14 14 11 4 358 356 358 6 4 343 332 338 339 336 330 322 312 280 256 247 241 235 226 221 222 223 221 221 223 224 224 223
118 112 103 93 78 60 48 31 24 17 6 9 14 7 357 350 352 355 359 357 346 341 343 348 348 340 336 332 322 301 277 262 252 244 236 230 228 227 225 223 223 223 223 222
128 120 111 102 88 57 22 17 16 10 5 3 2 358 354 350 347 346 344 333 329 342 348 344 343 347 348 343 332 323 307 288 272 260 250 240 234 232 230 227 225 225 223 220
140 138 132 126 118 73 358 2 0 353 347 342 340 340 335 326 325 336 335 330 330 343 347 338 345 352 355 351 342 337 329 318 303 286 271 258 247 240 236 233 230 226 223 221
154 157 158 151 131 100 336 308 312 307 306 306 308 311 315 320 318 306 294 321 337 343 341 338 349 355 357 352 346 343 339 333 325 315 301 285 269 257 248 241 236 232 228 224
166 171 175 175 191 219 240 273 301 306 313 309 307 304 294 269 273 294 305 310 325 337 332 337 346 349 350 342 344 343 341 338 336 331 322 312 298 281 267 255 245 238 233 230
178 193 207 210 214 221 225 234 255 272 281 293 297 292 291 287 282 286 294 302 308 322 324 319 323 333 333 332 335 337 338 338 339 336 332 328 319 310 296 281 265 253 244 238
197 206 218 242 244 224 218 221 235 254 253 256 273 282 287 289 290 291 293 296 301 304 305 308 311 315 318 320 323 326 329 333 336 337 336 334 331 324 317 306 292 277 262 250